Location: Chassagnes
(44.4047°N, 4.1657°E)
Time: 13:04:33
(UTC+00:00)

H-2A R/B - Pass Details

Date: 27 October 2020
Orbit: 733 x 837 km, 98.2° (Epoch: 23 November)

Event Time Altitude Azimuth Distance (km) Brightness Sun altitude
Rises 17:19:31 0° 122° (ESE) 3,358 4.9 -7.8°
Reaches altitude 10° 17:22:24 10° 107° (ESE) 2,439 4.1 -8.3°
Maximum altitude 17:26:16 20° 61° (ENE) 1,827 3.4 -9.0°
Drops below altitude 10° 17:30:10 10° 15° (NNE) 2,461 4.4 -9.7°
Sets 17:33:06 0° 360° (N) 3,397 5.3 -10.2°
